Miscellaneous Local Product
Issued by NWS Hastings, NE

Home | Current Version | Previous Version | Graphics & Text | Print | Product List | Glossary On
Versions: 1 2 3 4 5 6 7 8 9 10 11 12 13 14 15 16 17 18 19 20 21 22 23 24 25 26 27 28 29 30 31 32 33 34 35 36 37 38 39 40 41 42 43 44 45 46 47 48 49 50
461
AXUS43 KGID 152202
MISGRI

GID CWA HOURLY WEATHER ROUNDUP
NATIONAL WEATHER SERVICE HASTINGS NE
400 PM CST SUN JAN 15 2017

NOTE: "FAIR" INDICATES FEW OR NO CLOUDS BELOW 12,000 FEET WITH NO
SIGNIFICANT WEATHER AND/OR OBSTRUCTIONS TO VISIBILITY.

...SOUTH CENTRAL NEBRASKA...

CITY           SKY/WX    TMP DP  RH WIND       PRES   REMARKS
GRAND ISLAND   FRZ RAIN  30  30 100 SE3       30.14F FOG
HASTINGS       FRZ RAIN  30  28  92 E5        30.13F FOG     WCI  25
KEARNEY        CLOUDY    30  27  86 CALM      30.12S
ORD            CLOUDY    33  23  66 S7        30.11S WCI  27
YORK           CLOUDY    30  30 100 CALM      30.15F FOG
AURORA         MIX PCPN  30  29  96 SE3       30.15S
LEXINGTON      MIX PCPN  31  28  91 CALM      30.10S
HOLDREGE       CLOUDY    30  29  94 SE5       30.10S WCI  25
HEBRON         MIX PCPN  31  29  94 E7        30.15F WCI  24

...NEBRASKA PANHANDLE...

CITY           SKY/WX    TMP DP  RH WIND       PRES   REMARKS
CHADRON        CLOUDY    31  23  72 CALM      30.04F
ALLIANCE       CLOUDY    40  18  41 CALM      30.00F
SCOTTSBLUFF    CLOUDY    39  25  57 NW5       30.01F
SIDNEY         CLOUDY    34  23  64 E6        30.00S WCI  29

...WESTERN AND NORTH CENTRAL NEBRASKA...

CITY           SKY/WX    TMP DP  RH WIND       PRES   REMARKS
VALENTINE      CLOUDY    45  18  34 SE5       30.05S
AINSWORTH      CLOUDY    40  27  59 S5        30.06F
ONEILL         SUNNY     38  24  57 S3        30.10S
BROKEN BOW     CLOUDY    33  26  75 SE7       30.08S WCI  27
IMPERIAL       FRZ RAIN  30  28  92 SE5       30.04S FOG     WCI  25
NORTH PLATTE   MIX PCPN  32  27  81 S3        30.06F
MCCOOK         CLOUDY    31  30  96 E6        30.08S FOG     WCI  25

...EASTERN NEBRASKA...

CITY           SKY/WX    TMP DP  RH WIND       PRES   REMARKS
NORFOLK        CLOUDY    33  22  63 S8        30.15S WCI  26
SO SIOUX CITY  CLOUDY    36  18  48 SE7       30.20S WCI  30
TEKAMAH        CLOUDY    35  21  56 S9        30.21R WCI  28
COLUMBUS       CLOUDY    30  27  86 SE5       30.18F WCI  25
ALBION         CLOUDY    33  24  72 S6        30.15S WCI  27
OMAHA EPPLEY   FRZ RAIN  32  26  78 SE6       30.22S FOG     WCI  26
MILLARD        MIX PCPN  33  29  87 E5        30.21F WCI  28
LINCOLN        FRZ RAIN  31  29  92 E7        30.20F FOG     WCI  24
NEBRASKA CITY  MIX PCPN  31  30  98 E6        30.20F WCI  25
BEATRICE       LGT SNOW  32  30  95 E6        30.17S WCI  26
FALLS CITY     FRZ RAIN  31  30  96 E7        30.20F FOG     WCI  24

...NORTHERN KANSAS...

CITY           SKY/WX    TMP DP  RH WIND       PRES   REMARKS
GOODLAND       MIX PCPN  30  29  96 E3        30.00F
HILL CITY      MIX PCPN  30  30 100 E7        30.09F FOG     WCI  23
NORTON         MIX PCPN  30  27  86 E3        30.08S
PHILLIPSBURG   MIX PCPN  30  30 100 NE5       30.12S WCI  25
SMITH CENTER   CLOUDY    28  28 100 NE5       30.12F WCI  23
HAYS           MIX PCPN  31  29  92 NE7       30.09F FOG     WCI  24
RUSSELL        FRZ RAIN  30  29  96 NE6       30.09R WCI  24
CONCORDIA      MIX PCPN  30  30 100 E6        30.13F FOG     WCI  24
SALINA         FRZ RAIN  32  30  92 NE9       30.14F WCI  24
TOPEKA         LGT RAIN  33  30  88 E7        30.18F FOG     WCI  27



USA.gov is the U.S. government's official web portal to all federal, state and local government web resources and services.